Regional Weather Roundup
Issued by NWS

Home | Current Version | Previous Version | Graphics & Text | Print | Product List | Glossary On
Versions: 1 2 3 4 5 6 7 8 9 10 11 12 13 14 15 16 17 18 19 20 21 22 23 24 25 26 27 28 29 30 31 32 33 34 35 36 37 38 39 40 41 42 43 44 45 46 47 48 49 50
000
ASUS43 KIND 260259
RWRIN

WEATHER ROUNDUP FOR INDIANA
NATIONAL WEATHER SERVICE INDIANAPOLIS IN
1100 PM EDT WED APR 25 2018

NOTE: "FAIR" INDICATES FEW OR NO CLOUDS BELOW 12,000 FEET WITH NO
SIGNIFICANT WEATHER AND/OR OBSTRUCTIONS TO VISIBILITY.

* - STATION DOES NOT REPORT WEATHER SUCH AS PRECIPITATION OR FOG.

+ - STATION NOT QUALITY CONTROLLED BY THE NATIONAL WEATHER SERVICE.
    USE DATA WITH CAUTION...ESPECIALLY DEWPOINT AND RELATIVE
    HUMIDITY OBSERVATIONS.

INZ001>003-010>013-019-020-260400-
NORTHWEST INDIANA

CITY           SKY/WX    TMP DP  RH WIND       PRES   REMARKS
GARY /AIRPORT/ PTCLDY    39  34  81 CALM      30.04F
KNOX *+        FAIR      34  30  86 NW8       30.01F WCI  27
MONTICELLO +   FAIR      42  29  60 N6        30.00S
RENSSELAER +   FAIR      41  23  48 N5        30.02S

$$

LMZ046-743>745-260400-
SOUTHERN LAKE MICHIGAN

STATION/POSITION TIME  TEMP    WIND        PRES    WAVE
                       AIR SEA DIR/SP/G            HT
                 (UTC) (F)     (DEG/KT/KT) (MB)    (FT)
BURNS HARBOR     0240   39     320/  3/  5 1017.6F
MICHIGAN CITY    0230   39     290/  6/  7   N/A

$$

INZ004-005-014>016-021>024-260400-
NORTH CENTRAL INDIANA

CITY           SKY/WX    TMP DP  RH WIND       PRES   REMARKS
GOSHEN         FAIR      40  30  67 NW7       29.98S WCI  35
ROCHESTER +    FAIR      43  30  61 NW8       30.00S
SOUTH BEND     FAIR      36  29  75 NW6       30.01R WCI  31
WARSAW +       FAIR      41  28  60 NW7       29.99S

$$

INZ006>009-017-018-025>027-260400-
NORTHEAST INDIANA

CITY           SKY/WX    TMP DP  RH WIND       PRES   REMARKS
ANGOLA *+      FAIR      43  30  61 NW6       29.96S
FORT WAYNE     FAIR      45  31  58 NW6       29.97S
KENDALLVILLE + FAIR      42  27  54 NW7       29.97S

$$

INZ028-029-035-036-043>045-051>053-260400-
WEST CENTRAL INDIANA

CITY           SKY/WX    TMP DP  RH WIND       PRES   REMARKS
CRAWFORDSVL +  FAIR      43  30  59 N6        30.00S
GREENCASTLE +  FAIR      46  32  57 N8        29.99F
LAFAYETTE      FAIR      44  32  62 N7        30.01S
TERRE HAUTE    FAIR      52  33  48 NE9       29.99R

$$

INZ030>032-037>040-046>048-054>057-064-065-260400-
CENTRAL INDIANA

CITY           SKY/WX    TMP DP  RH WIND       PRES   REMARKS
GREENWOOD *+   FAIR      49  32  51 N10       29.98S
INDIANAPOLIS   MOCLDY    49  30  48 N12       29.98S
-EAGLE CREEK   FAIR      48  29  47 N7        29.98S
KOKOMO +       FAIR      44  30  57 NW8       29.99S
MT COMFORT *+  FAIR      45  37  76 N10       29.99S
SHELBYVILLE    FAIR      50  35  56 N10       29.97R
ZIONSVILLE +   FAIR      41  31  67 NW3       30.00F

$$

INZ033-034-041-042-049-050-058-059-260400-
EAST CENTRAL INDIANA

CITY           SKY/WX    TMP DP  RH WIND       PRES   REMARKS
MUNCIE         FAIR      45  33  63 W7        29.97S
RICHMOND +     FAIR      50  36  57 NW8       29.96S

$$

INZ060-061-067>069-081>083-085>088-260400-
SOUTHWEST INDIANA

CITY           SKY/WX    TMP DP  RH WIND       PRES   REMARKS
EVANSVILLE     FAIR      61  50  67 N3        29.94S
HUNTINGBURG +  FAIR      58  48  69 N3        29.95R

$$

INZ062-063-066-070>080-084-089>092-260400-
SOUTH CENTRAL AND SOUTHEAST INDIANA

CITY           SKY/WX    TMP DP  RH WIND       PRES   REMARKS
BLOOMINGTON    FAIR      54  35  48 N13       29.97R
FRENCH LICK *+ FAIR      55  39  54 CALM      29.95S
SEYMOUR +      FAIR      57  41  54 N7        29.96R

$$




USA.gov is the U.S. government's official web portal to all federal, state and local government web resources and services.